Temperature
21 21 21 21 19 18 19 20 21 21 21 21 20 20 19 18 18 17 17 17 17 18 17 17 17 17 17 17 17 17 17 17 17 17 17 17 17 17 17 17 17 17 18 18 18 18 18 18 18
22 21 21 21 18 18 19 20 20 21 21 21 20 20 19 18 18 18 17 17 18 18 17 17 17 17 17 17 17 17 17 17 17 17 17 17 17 17 17 17 17 17 17 17 18 18 18 18 18
22 21 21 18 18 18 20 20 21 22 22 21 20 20 19 18 18 18 18 18 18 18 17 17 17 17 17 17 17 17 17 17 17 17 17 17 17 17 17 17 17 17 17 17 17 17 17 17 18
22 21 21 18 19 20 21 21 21 21 21 21 20 19 19 18 18 18 18 18 18 18 17 17 17 17 17 17 17 17 17 17 17 17 17 17 17 17 17 17 17 17 17 17 17 17 17 17 17
22 21 18 19 20 21 21 22 22 21 20 20 19 18 18 18 18 18 18 18 18 18 18 17 17 17 17 17 17 17 17 17 17 17 17 17 17 17 17 17 17 17 17 17 17 17 17 17 17
22 19 18 19 20 21 21 22 22 21 20 20 19 18 18 18 18 18 18 18 18 18 18 17 17 17 17 17 17 17 17 17 17 17 17 17 16 17 17 17 17 17 17 17 17 17 17 17 17
21 18 19 19 20 21 22 22 21 21 20 20 20 18 18 18 18 18 18 18 18 18 18 17 17 17 17 17 17 17 17 17 17 17 17 16 16 16 16 16 17 17 17 17 17 17 16 16 16
22 18 19 19 20 21 22 22 22 22 21 21 20 18 18 19 18 18 18 18 18 18 18 17 17 17 17 17 17 17 17 16 16 16 16 16 16 16 16 16 16 16 16 16 16 16 16 16 16
23 18 18 20 20 21 22 22 22 22 21 21 20 20 20 19 19 18 18 18 18 18 17 17 17 17 17 17 17 16 16 16 16 16 16 16 16 16 16 16 16 16 16 16 16 16 16 16 16
22 19 20 21 21 21 22 22 22 21 20 20 20 20 20 19 19 19 18 18 18 18 17 17 17 17 17 17 17 16 16 16 16 16 16 16 16 16 16 16 16 16 16 16 16 16 16 16 16
21 20 21 22 22 22 22 22 22 21 19 20 20 20 19 19 19 19 19 19 18 18 18 17 17 17 17 17 17 17 16 16 16 16 16 16 16 16 16 16 16 16 16 16 16 16 16 16 16
21 22 22 23 23 23 22 22 21 21 21 21 21 20 20 19 19 19 19 19 18 18 18 18 17 17 17 17 17 17 16 16 16 16 16 16 16 16 16 16 16 16 16 16 16 16 16 15 15
21 22 23 23 23 23 22 22 21 21 22 21 21 20 20 20 19 19 19 19 19 18 18 18 18 17 17 17 17 17 17 16 16 16 16 16 16 16 16 16 15 15 15 15 15 15 15 15 15
22 22 23 23 23 23 22 21 21 21 21 21 21 20 20 20 20 19 19 19 19 18 18 18 18 17 17 17 17 17 17 16 16 16 16 16 16 16 16 16 15 15 15 15 15 15 15 15 15
23 22 22 22 22 22 22 20 20 22 21 21 21 21 20 20 20 20 19 19 19 19 18 18 18 17 17 17 17 17 17 16 16 16 16 16 16 16 16 16 15 15 15 15 15 15 15 15 15
22 21 20 22 22 22 21 19 20 22 21 21 21 20 20 20 20 20 20 19 19 19 18 18 18 18 17 17 17 17 17 16 16 16 16 16 16 16 15 15 15 15 15 15 15 15 15 15 15
20 20 20 21 22 22 21 20 20 22 21 21 21 20 20 20 20 20 20 19 19 19 18 18 18 18 17 17 17 17 16 16 16 16 16 16 16 15 15 15 15 15 15 15 15 15 15 15 14
20 20 21 21 22 21 20 20 20 21 21 21 21 20 20 20 20 20 20 19 19 19 18 18 18 18 17 17 17 17 16 16 16 16 16 16 15 15 15 15 15 15 15 15 15 15 15 14 14
21 21 21 21 22 21 20 20 20 21 21 20 20 20 20 20 20 20 20 19 19 19 18 18 18 18 17 17 17 17 16 16 16 16 16 15 15 15 15 15 15 15 15 15 14 14 14 14 14
22 21 21 21 22 22 20 20 20 20 20 21 20 20 20 20 20 20 19 19 19 19 18 18 18 18 17 17 17 17 16 16 16 16 15 15 15 15 15 15 15 15 15 14 14 14 14 14 14
22 21 21 21 21 21 20 19 20 20 21 21 21 20 20 20 20 20 19 19 19 19 18 18 18 17 17 17 17 16 16 16 16 15 15 15 15 15 15 15 15 15 14 14 14 14 14 14 14
21 23 23 22 20 19 20 18 19 19 19 19 20 20 20 20 20 20 19 19 19 19 18 18 18 17 17 17 17 16 16 16 15 15 15 15 15 15 15 15 15 14 14 14 14 14 14 14 14
22 23 22 22 20 19 19 18 18 18 19 19 19 20 20 20 20 20 20 19 19 19 18 18 18 17 17 17 17 16 16 16 15 15 15 15 15 15 15 15 14 14 14 14 14 14 14 14 14
23 21 20 18 18 18 19 18 18 18 19 19 19 20 20 20 20 20 20 19 19 19 18 18 18 17 17 17 17 16 16 16 15 15 15 15 15 15 15 14 14 14 14 14 14 14 14 14 14
21 18 17 18 17 18 19 19 18 19 20 20 19 20 20 20 20 20 19 19 19 18 18 18 18 17 17 17 16 16 16 16 15 15 15 15 15 15 15 14 14 14 14 14 14 14 14 14 14
21 19 18 18 17 18 19 19 19 20 20 21 21 20 20 20 20 19 19 19 19 18 18 18 17 17 17 17 16 16 16 16 15 15 15 15 15 15 14 14 14 14 14 14 14 14 14 14 14
21 19 19 17 18 18 18 19 20 20 19 19 20 20 19 20 20 19 19 19 18 18 18 18 17 17 17 16 16 16 16 16 15 15 15 15 15 14 14 14 14 14 14 14 14 14 14 14 14
21 20 17 18 18 17 18 18 18 18 18 19 18 19 19 19 19 19 19 19 18 18 18 17 17 17 17 16 16 16 16 15 15 15 15 15 15 14 14 14 14 14 14 14 14 14 14 14 14
21 20 18 16 16 17 17 18 19 18 18 18 18 19 19 19 19 19 18 18 18 18 17 17 17 17 16 16 16 16 16 15 15 15 15 15 14 14 14 14 14 14 14 14 14 14 14 14 14
20 20 18 17 17 16 16 17 19 19 19 19 19 19 19 19 19 19 18 18 18 17 17 17 17 16 16 16 16 16 15 15 15 15 15 14 14 14 14 14 14 14 14 14 14 14 14 14 13
Wind_Speed
1 0 3 3 5 5 4 1 2 3 4 6 8 8 7 5 4 3 2 4 5 4 3 5 7 7 7 7 8 8 8 8 9 9 9 9 10 10 9 9 9 8 8 8 8 7 7 7 7
0 1 3 4 5 5 2 1 4 4 7 7 8 7 7 5 4 5 3 4 6 5 5 6 7 8 8 8 8 8 8 8 9 9 9 9 10 10 9 9 9 8 8 8 7 7 6 6 7
0 1 4 4 4 4 3 1 4 5 6 5 5 5 5 4 3 3 4 7 6 5 5 6 8 8 8 8 8 8 8 8 9 9 9 10 10 10 9 9 9 8 7 7 7 6 6 7 7
3 4 5 6 6 2 5 4 5 6 6 6 6 5 4 3 4 5 7 8 7 5 5 7 8 8 8 8 8 8 8 8 8 9 9 9 10 10 10 10 9 8 7 6 6 6 7 7 7
3 5 6 5 4 2 4 5 6 7 4 5 6 6 3 2 5 8 9 7 7 5 5 7 8 8 8 8 7 7 8 8 8 8 9 9 9 10 10 9 9 9 8 7 7 7 8 7 7
4 5 5 4 4 2 3 5 8 9 7 6 6 5 2 2 5 6 7 7 7 6 5 6 7 8 8 7 7 7 7 8 8 8 8 9 9 9 9 9 9 9 9 8 8 9 8 8 8
5 4 4 4 4 4 3 4 7 7 6 4 5 5 2 2 4 6 7 6 6 6 5 4 5 6 7 7 7 7 7 7 7 7 8 8 9 9 9 9 9 9 9 9 9 9 9 9 9
5 5 4 3 4 3 3 4 5 7 4 4 5 6 5 5 5 5 5 6 5 4 4 4 4 5 5 5 5 6 6 7 7 7 7 7 7 8 8 8 8 8 8 8 9 9 10 10 11
4 6 3 3 4 3 4 6 3 5 6 4 3 5 6 8 6 6 5 4 4 4 3 3 3 4 4 4 4 4 5 6 6 6 6 6 5 5 5 6 7 7 7 8 9 9 10 10 11
5 5 3 3 5 5 4 5 3 5 6 5 5 4 7 8 7 6 5 5 4 4 4 4 4 3 4 3 3 3 3 4 4 4 4 4 3 3 4 5 6 7 8 8 9 10 10 10 9
4 5 3 3 4 5 4 4 3 7 4 4 6 8 7 7 7 6 5 5 5 5 5 5 4 4 3 2 3 2 2 3 3 3 3 3 3 3 4 4 5 7 8 8 8 9 8 8 8
5 4 4 4 4 4 4 3 4 4 5 7 9 10 9 8 8 7 7 5 4 5 5 5 5 4 3 3 3 3 2 2 2 2 4 4 3 3 3 3 4 5 6 6 7 6 8 9 9
4 3 3 4 5 5 5 4 4 3 4 6 8 9 9 8 7 6 6 5 4 5 5 5 6 5 3 3 2 3 2 2 3 3 5 6 3 2 3 3 4 4 6 6 5 6 7 7 7
4 3 2 4 5 4 6 3 4 3 5 8 8 7 8 7 6 5 6 5 5 5 5 5 5 5 5 3 2 2 3 3 4 4 5 6 5 4 3 3 3 4 5 6 6 6 5 5 6
4 4 2 2 3 3 5 2 3 6 6 7 7 7 7 6 6 7 8 7 6 6 6 5 6 5 5 4 3 3 4 5 4 4 6 7 6 6 4 3 3 3 5 6 6 6 6 5 5
3 3 1 3 4 3 6 3 6 6 8 8 7 6 6 6 6 7 8 7 6 6 6 5 6 6 6 4 4 4 4 5 4 5 6 7 7 8 5 3 3 4 6 5 4 4 5 5 4
1 1 3 3 3 4 5 5 7 6 8 8 7 7 6 5 5 5 8 8 7 7 6 5 6 6 6 5 4 4 4 4 4 5 5 6 7 8 6 4 4 6 5 3 4 4 4 4 4
4 3 3 4 4 3 4 5 6 5 7 8 7 6 6 7 7 6 7 7 7 7 7 6 6 6 6 4 4 4 4 3 4 4 4 6 7 7 6 4 4 5 4 3 3 4 4 3 3
5 3 3 4 4 3 5 6 6 6 6 6 6 6 6 7 6 6 7 7 7 6 6 6 6 5 5 4 3 3 2 2 2 2 4 5 6 6 6 4 3 4 4 4 4 4 4 3 3
3 2 1 2 2 3 4 5 6 6 8 9 9 8 8 6 4 5 6 6 7 7 6 6 7 6 5 4 3 3 2 1 1 1 3 4 4 4 5 4 3 3 4 4 3 4 3 2 2
2 4 3 3 1 1 1 3 3 4 4 6 7 8 8 9 9 7 7 7 7 7 7 7 7 6 5 5 4 3 3 3 3 2 1 1 3 3 4 5 4 3 4 4 3 3 4 2 0
2 4 3 2 3 2 2 2 6 5 3 5 6 7 8 8 8 8 7 7 8 7 7 7 7 6 5 5 5 5 3 2 2 1 1 0 2 3 4 4 4 3 3 3 3 3 3 3 1
4 3 1 1 2 1 1 3 7 2 4 6 7 8 8 8 9 9 8 8 8 7 7 7 7 6 5 5 6 6 4 2 1 1 1 0 0 2 2 4 4 4 3 3 2 2 2 2 2
2 3 6 5 4 2 5 4 5 4 8 6 7 7 7 8 8 7 7 6 6 6 7 7 7 5 5 5 5 6 5 4 3 2 1 0 0 0 1 3 3 3 3 3 3 2 2 2 2
4 6 4 4 3 5 3 3 7 7 6 7 8 7 7 7 8 7 7 7 7 7 7 7 7 5 4 5 5 5 6 5 5 4 3 2 1 1 2 2 2 2 3 3 3 2 2 2 2
3 8 6 4 4 5 3 3 5 3 3 5 6 7 7 7 7 8 8 8 8 8 7 7 7 6 5 5 5 5 5 4 3 4 3 3 3 3 3 3 3 3 3 3 3 2 2 2 2
4 3 7 6 2 3 4 3 4 3 4 4 6 6 7 8 8 7 6 6 7 8 7 8 8 6 5 5 5 4 4 4 4 3 3 3 3 3 3 3 3 3 3 3 3 2 2 2 1
5 6 5 3 2 3 4 3 4 3 3 4 5 6 6 6 6 5 5 5 5 7 6 6 7 7 5 5 4 4 4 4 4 3 3 3 3 3 3 3 3 3 2 3 3 2 2 2 1
2 2 4 4 4 4 3 6 5 8 7 7 7 7 8 8 7 6 5 4 4 5 5 5 5 5 5 4 4 3 3 3 3 3 3 3 2 3 3 3 3 3 3 3 4 3 3 3 2
5 5 6 4 3 4 3 7 4 6 6 7 7 7 7 8 7 6 5 4 3 4 5 5 5 5 5 5 4 4 3 3 3 3 3 2 2 3 3 3 3 4 3 4 4 4 3 3 3
Wind_Direction
237 319 100 69 57 57 65 45 113 77 66 64 74 81 83 68 80 124 214 136 129 133 119 106 96 93 93 89 85 83 82 82 84 83 82 83 85 86 87 86 84 83 84 84 80 80 89 91 88
54 76 69 62 78 82 60 75 85 95 131 116 78 72 77 72 86 115 129 137 131 132 125 110 100 96 94 91 87 85 85 87 86 85 83 84 87 88 86 87 88 86 84 83 83 86 91 92 91
273 78 80 67 83 123 138 150 111 92 105 96 77 54 68 96 109 140 155 142 125 121 121 115 105 100 97 94 89 87 89 88 87 87 87 88 88 88 85 85 84 84 82 82 83 86 93 94 93
79 48 58 74 85 121 139 141 118 93 66 62 93 68 54 79 141 145 139 135 125 124 123 122 110 103 99 97 92 91 91 90 90 91 91 91 91 89 85 82 79 77 76 77 86 93 97 95 93
72 70 65 76 81 82 104 113 105 94 85 76 90 94 75 46 119 126 136 138 132 131 133 127 116 111 109 105 99 94 94 93 91 92 94 94 91 88 85 83 79 75 70 69 86 94 94 93 93
56 65 81 92 91 84 94 106 94 95 107 108 101 105 110 123 122 134 141 141 140 144 144 135 125 121 115 110 104 101 100 97 95 90 94 97 94 91 86 83 77 72 68 72 86 89 87 86 85
98 87 107 116 95 86 115 111 102 113 112 122 126 107 129 157 148 139 143 142 143 147 143 142 136 126 121 117 111 108 106 101 98 96 94 96 96 92 86 83 79 73 71 75 81 81 80 81 84
118 98 85 98 105 97 109 105 118 117 117 127 121 131 169 201 169 133 131 134 139 143 149 154 148 135 128 125 123 120 113 103 99 100 98 99 96 92 88 86 82 75 71 73 75 80 79 76 82
86 85 110 154 138 130 108 94 78 78 93 77 89 146 169 161 140 117 108 108 128 143 157 160 163 160 155 148 134 128 117 103 102 95 95 94 85 80 80 85 82 75 70 72 74 75 72 69 75
84 110 160 169 151 142 120 114 118 87 80 74 75 93 128 137 135 136 137 137 136 146 157 164 170 171 161 143 126 120 108 99 99 101 98 95 95 85 79 75 72 68 67 71 70 66 66 65 64
111 135 127 110 131 127 111 103 104 117 114 154 150 150 148 141 148 153 159 154 155 160 152 159 159 157 146 127 126 118 103 91 87 111 119 113 98 82 73 63 59 60 64 64 61 57 56 65 68
107 126 135 138 129 116 120 115 96 129 178 175 158 152 153 149 159 162 165 166 146 142 151 157 155 150 146 136 129 125 115 105 108 125 126 123 102 85 83 70 64 62 67 69 64 64 63 68 68
104 130 128 136 113 123 108 108 121 146 162 145 139 141 153 160 166 165 161 156 140 141 144 147 151 145 137 124 130 116 113 114 122 108 112 119 109 101 89 77 77 76 77 77 72 67 67 67 66
151 130 121 129 120 125 117 119 109 191 151 141 146 154 158 161 166 156 151 147 149 150 145 140 141 139 128 125 118 104 108 105 97 98 107 115 117 111 101 89 81 80 82 85 87 82 77 72 71
115 99 61 161 149 161 114 62 189 193 154 154 166 168 160 160 153 158 163 160 164 156 146 142 138 127 121 116 113 100 97 95 85 88 103 110 110 110 106 98 91 89 94 94 92 88 83 77 70
67 80 146 246 176 177 124 199 236 199 162 170 177 173 166 161 163 167 158 154 157 149 142 139 132 121 114 108 105 95 93 92 85 90 96 102 108 110 103 101 101 99 96 93 97 91 86 73 65
35 178 218 256 210 167 149 210 238 200 173 181 181 180 174 159 158 166 159 154 154 151 144 131 124 124 119 110 100 94 87 82 86 89 94 101 105 109 104 103 105 105 93 88 106 96 101 96 81
216 205 213 223 230 168 178 218 235 200 180 189 185 182 177 171 183 176 163 154 149 146 140 134 126 124 119 104 86 73 66 57 69 77 88 100 105 110 106 106 102 102 95 83 90 100 90 102 101
187 187 205 229 218 174 202 222 230 206 188 187 179 177 178 189 194 171 157 151 144 141 139 141 137 136 123 112 106 97 86 66 57 72 91 98 105 110 110 110 105 102 105 111 107 102 89 86 99
188 187 205 245 207 179 212 241 230 205 197 192 183 180 181 178 171 164 160 155 152 154 152 149 150 147 141 140 141 138 132 116 100 69 78 101 113 119 124 127 130 120 115 109 109 114 108 103 108
211 186 199 204 255 6 87 319 264 247 207 198 186 179 180 178 178 175 169 170 162 161 162 159 160 151 145 136 116 92 67 51 39 37 36 80 126 133 135 138 139 136 134 142 147 141 132 133 66
233 223 187 155 113 255 158 255 270 240 226 202 196 183 182 182 176 174 169 167 169 174 164 158 158 151 148 138 134 136 135 149 201 202 208 291 127 140 140 143 142 146 143 151 167 146 138 133 137
209 225 179 182 152 305 245 181 275 233 221 220 205 195 186 179 173 173 171 170 170 164 157 156 153 151 152 147 147 143 145 171 179 158 138 76 48 141 143 147 143 141 147 159 160 142 141 137 144
156 49 25 47 78 302 239 179 265 225 211 205 200 193 182 171 168 164 161 152 149 145 147 151 150 158 162 152 150 151 157 160 150 156 164 194 201 188 160 153 149 150 155 161 166 164 157 150 132
83 85 27 357 5 257 242 178 246 234 201 180 175 180 176 163 157 156 154 154 153 149 153 154 152 163 171 161 162 168 168 165 169 178 183 175 166 183 208 164 162 162 166 165 157 148 168 162 145
174 140 157 205 231 278 314 220 264 257 178 154 151 150 149 153 158 162 167 166 164 161 160 160 165 168 171 171 174 178 171 170 182 188 183 186 187 198 197 177 168 169 169 163 156 153 164 152 160
152 177 176 156 237 266 283 295 327 28 91 113 127 136 156 161 165 169 169 167 165 167 172 171 169 169 175 177 169 170 177 173 179 188 184 187 194 201 192 180 175 178 175 168 156 156 177 147 155
162 159 94 118 186 270 289 252 232 207 167 159 158 157 169 168 159 156 162 168 175 178 178 174 170 172 179 181 180 178 187 185 181 175 178 182 192 189 180 184 183 180 172 168 161 164 182 149 179
155 136 124 137 162 172 258 268 222 193 186 180 183 177 174 173 168 169 171 172 171 170 166 165 171 168 174 179 180 173 180 181 172 177 195 195 191 190 181 183 185 184 178 175 166 178 175 167 191
178 181 151 162 230 181 196 266 277 195 190 182 184 185 180 175 173 171 167 156 153 167 170 170 169 173 184 183 171 171 171 170 171 183 200 197 191 195 189 182 188 197 192 191 185 191 188 183 193
Height
1512 1512 1512 1513 1517 1528 1531 1526 1521 1519 1520 1521 1520 1521 1524 1527 1530 1535 1532 1529 1529 1528 1527 1526 1524 1523 1522 1522 1521 1521 1520 1520 1519 1519 1519 1519 1519 1518 1518 1518 1518 1519 1519 1519 1519 1520 1520 1520 1520
1512 1512 1514 1514 1525 1539 1535 1525 1522 1520 1521 1521 1522 1523 1525 1528 1529 1530 1530 1530 1529 1529 1528 1526 1525 1524 1523 1522 1522 1521 1521 1520 1520 1520 1520 1519 1519 1519 1519 1519 1519 1519 1519 1519 1519 1519 1520 1520 1521
1512 1513 1515 1518 1528 1536 1532 1524 1521 1520 1521 1520 1524 1526 1527 1530 1531 1531 1531 1531 1530 1529 1528 1527 1526 1525 1524 1523 1522 1522 1521 1521 1521 1520 1520 1520 1520 1520 1519 1519 1519 1519 1519 1519 1519 1519 1519 1520 1520
1513 1515 1517 1525 1530 1527 1524 1522 1521 1521 1522 1523 1524 1528 1530 1532 1531 1531 1531 1531 1531 1530 1529 1528 1527 1526 1525 1524 1523 1523 1522 1522 1522 1521 1521 1521 1521 1520 1520 1520 1519 1519 1518 1517 1517 1518 1519 1520 1520
1514 1516 1523 1531 1529 1524 1521 1521 1520 1521 1524 1526 1526 1530 1532 1533 1532 1532 1532 1532 1532 1531 1530 1529 1528 1527 1526 1525 1525 1524 1524 1523 1523 1523 1522 1522 1522 1521 1521 1520 1520 1519 1517 1515 1514 1516 1518 1519 1520
1516 1518 1532 1537 1531 1524 1522 1522 1522 1524 1526 1527 1528 1530 1533 1534 1533 1533 1533 1533 1533 1532 1531 1530 1529 1528 1527 1527 1526 1526 1525 1525 1525 1524 1524 1523 1523 1523 1522 1521 1520 1519 1517 1513 1512 1516 1518 1519 1520
1517 1524 1532 1533 1532 1528 1524 1523 1523 1525 1526 1528 1528 1531 1533 1534 1534 1534 1534 1534 1533 1533 1532 1531 1530 1530 1529 1529 1528 1527 1527 1527 1526 1526 1525 1525 1525 1524 1523 1523 1522 1521 1519 1516 1516 1518 1519 1520 1520
1516 1524 1531 1533 1532 1530 1524 1524 1524 1525 1527 1528 1529 1530 1532 1534 1534 1534 1535 1534 1534 1534 1533 1533 1532 1532 1531 1530 1530 1529 1529 1528 1528 1527 1527 1526 1526 1526 1525 1524 1524 1523 1521 1520 1520 1521 1521 1521 1521
1518 1528 1535 1532 1530 1528 1525 1525 1526 1527 1527 1528 1529 1529 1531 1533 1534 1535 1535 1535 1535 1535 1534 1534 1533 1533 1532 1532 1531 1531 1530 1530 1530 1529 1529 1528 1527 1527 1526 1526 1525 1525 1524 1523 1523 1523 1523 1523 1523
1519 1530 1529 1524 1524 1525 1525 1525 1527 1528 1529 1530 1530 1531 1532 1533 1534 1535 1535 1535 1535 1535 1535 1535 1535 1534 1534 1534 1533 1533 1532 1532 1531 1530 1530 1529 1529 1528 1528 1527 1527 1526 1526 1525 1525 1525 1525 1525 1525
1520 1526 1524 1523 1523 1524 1525 1526 1527 1528 1531 1530 1530 1531 1532 1533 1534 1535 1535 1535 1535 1535 1536 1536 1536 1536 1535 1535 1534 1534 1534 1533 1533 1532 1532 1531 1530 1530 1529 1529 1528 1528 1527 1527 1527 1527 1527 1527 1527
1521 1522 1523 1523 1523 1524 1525 1526 1528 1528 1529 1529 1530 1531 1532 1533 1534 1534 1535 1535 1536 1536 1536 1536 1536 1536 1536 1536 1536 1535 1535 1535 1534 1533 1533 1532 1532 1531 1531 1530 1530 1529 1529 1529 1529 1529 1528 1528 1528
1522 1523 1523 1524 1524 1525 1526 1527 1528 1529 1529 1530 1531 1532 1532 1533 1533 1534 1535 1536 1536 1536 1537 1537 1537 1537 1537 1537 1537 1536 1536 1536 1535 1534 1534 1534 1533 1532 1532 1531 1531 1531 1531 1531 1531 1530 1530 1530 1530
1523 1523 1524 1524 1525 1526 1526 1528 1529 1529 1530 1530 1531 1532 1532 1533 1534 1534 1535 1536 1536 1537 1537 1537 1537 1537 1538 1538 1537 1537 1537 1536 1536 1535 1535 1535 1534 1534 1533 1533 1532 1532 1532 1532 1532 1532 1531 1531 1531
1523 1525 1526 1525 1525 1526 1527 1531 1529 1528 1529 1530 1531 1531 1532 1533 1533 1534 1534 1535 1536 1537 1537 1537 1538 1538 1538 1538 1538 1538 1538 1537 1537 1536 1536 1536 1535 1535 1535 1534 1534 1533 1533 1533 1533 1533 1533 1533 1533
1525 1530 1535 1527 1525 1525 1531 1538 1528 1527 1528 1529 1530 1531 1531 1532 1533 1533 1534 1535 1536 1536 1537 1538 1538 1538 1539 1539 1539 1539 1538 1538 1538 1537 1537 1536 1536 1536 1535 1535 1534 1534 1534 1534 1534 1534 1534 1534 1534
1532 1539 1537 1530 1523 1524 1529 1533 1526 1526 1527 1527 1528 1529 1530 1531 1532 1533 1533 1534 1535 1536 1537 1537 1538 1538 1539 1539 1539 1539 1539 1539 1539 1538 1538 1537 1537 1537 1536 1536 1536 1535 1535 1535 1535 1535 1535 1535 1535
1538 1536 1535 1532 1524 1524 1528 1529 1525 1525 1525 1525 1527 1528 1529 1530 1531 1532 1533 1534 1534 1536 1537 1537 1538 1538 1539 1539 1539 1539 1540 1539 1539 1539 1538 1538 1538 1538 1537 1537 1537 1536 1536 1536 1536 1536 1536 1536 1536
1526 1530 1533 1528 1522 1524 1527 1527 1524 1523 1524 1524 1525 1526 1527 1528 1530 1531 1532 1533 1534 1535 1536 1537 1537 1538 1538 1539 1539 1539 1539 1539 1539 1539 1539 1539 1539 1538 1538 1537 1537 1537 1537 1537 1537 1536 1536 1536 1537
1524 1529 1530 1526 1521 1523 1527 1526 1522 1520 1521 1521 1522 1523 1525 1527 1529 1530 1531 1532 1533 1533 1535 1536 1537 1538 1538 1539 1539 1539 1540 1540 1540 1539 1539 1539 1539 1539 1538 1538 1538 1538 1537 1537 1537 1537 1537 1537 1537
1524 1527 1528 1527 1524 1523 1527 1531 1525 1520 1519 1520 1520 1521 1523 1524 1526 1528 1529 1530 1531 1532 1534 1535 1536 1537 1538 1538 1539 1539 1539 1539 1539 1539 1539 1539 1539 1539 1539 1538 1538 1538 1538 1538 1538 1538 1538 1538 1538
1527 1519 1520 1523 1531 1538 1532 1547 1530 1522 1520 1519 1519 1520 1521 1522 1524 1526 1527 1529 1530 1531 1532 1534 1535 1537 1537 1538 1538 1538 1538 1539 1539 1539 1539 1539 1539 1539 1538 1538 1538 1538 1538 1538 1538 1538 1538 1538 1538
1520 1515 1518 1521 1529 1536 1534 1543 1535 1523 1522 1519 1517 1518 1519 1521 1522 1523 1525 1527 1528 1530 1531 1533 1534 1536 1537 1537 1538 1538 1538 1538 1539 1539 1539 1538 1538 1538 1538 1538 1538 1538 1538 1538 1538 1538 1538 1538 1538
1514 1518 1523 1529 1536 1547 1536 1541 1538 1525 1518 1515 1515 1516 1517 1519 1521 1522 1524 1526 1527 1529 1530 1532 1533 1534 1536 1537 1537 1537 1538 1538 1538 1538 1538 1538 1537 1537 1537 1537 1537 1537 1538 1538 1538 1538 1538 1538 1538
1517 1533 1549 1550 1555 1549 1531 1535 1531 1513 1509 1510 1511 1513 1516 1518 1519 1521 1523 1525 1526 1527 1529 1531 1532 1533 1535 1536 1536 1537 1537 1537 1537 1537 1537 1537 1536 1536 1536 1537 1537 1537 1537 1537 1538 1538 1538 1538 1538
1520 1530 1550 1557 1557 1547 1531 1534 1522 1508 1507 1508 1510 1512 1515 1517 1519 1520 1522 1523 1525 1526 1528 1530 1531 1532 1533 1534 1535 1536 1536 1536 1536 1536 1536 1536 1535 1535 1535 1536 1536 1536 1536 1536 1537 1537 1537 1537 1537
1520 1526 1527 1541 1543 1548 1540 1528 1516 1509 1509 1510 1511 1513 1515 1516 1518 1519 1521 1523 1524 1525 1527 1528 1529 1531 1532 1533 1534 1534 1535 1535 1535 1535 1535 1535 1534 1534 1534 1534 1535 1535 1535 1535 1536 1536 1536 1536 1536
1513 1519 1532 1540 1549 1554 1542 1534 1529 1517 1514 1512 1512 1513 1514 1516 1517 1519 1520 1521 1523 1524 1525 1527 1528 1529 1530 1531 1532 1533 1533 1533 1533 1534 1533 1533 1533 1533 1533 1533 1533 1533 1534 1534 1534 1534 1535 1535 1535
1517 1520 1527 1538 1542 1551 1551 1538 1513 1512 1510 1510 1511 1511 1513 1515 1516 1517 1519 1520 1521 1522 1524 1525 1526 1527 1528 1529 1530 1531 1531 1531 1532 1532 1532 1532 1532 1532 1532 1531 1531 1532 1532 1532 1533 1533 1533 1533 1533
1512 1516 1525 1538 1540 1542 1547 1536 1506 1506 1506 1507 1509 1510 1511 1513 1514 1515 1517 1518 1519 1520 1521 1523 1524 1525 1526 1527 1528 1528 1529 1529 1530 1530 1530 1530 1530 1530 1530 1530 1530 1530 1530 1531 1531 1531 1531 1531 1532